This is the latest recevied weather packets stored in our database for station/object WW5AH-9. If no packets are shown the sender has not sent any weather packets the latest 1 day(s).
| Time | Temp. | Humidity | Pressure | Rain* | Wind** | Luminosity | Snow |
|---|---|---|---|---|---|---|---|
| 1778013311 | 28.89° C | 66% | 1004.3 hPa | 0 mm | 0.45 m/s, 293° | 689 W/m² | - |
| 1778013008 | 29.44° C | 65% | 1004.1 hPa | 0 mm | 0.89 m/s, 305° | 225 W/m² | - |
| 1778012704 | 29.44° C | 66% | 1004.3 hPa | 0 mm | 1.79 m/s, 175° | 567 W/m² | - |
| 1778012400 | 28.89° C | 67% | 1004 hPa | 0 mm | 2.68 m/s, 164° | 537 W/m² | - |
| 1778012097 | 28.33° C | 67% | 1004.4 hPa | 0 mm | 1.34 m/s, 260° | 501 W/m² | - |
| 1778011795 | 28.33° C | 68% | 1004.4 hPa | 0 mm | 2.24 m/s, 79° | 559 W/m² | - |
| 1778011493 | 27.78° C | 69% | 1004.4 hPa | 0 mm | 1.34 m/s, 162° | 364 W/m² | - |
| 1778011188 | 28.33° C | 67% | 1004.4 hPa | 0 mm | 3.13 m/s, 151° | 234 W/m² | - |
| 1778010886 | 28.89° C | 67% | 1004.4 hPa | 0 mm | 0.89 m/s, 222° | 258 W/m² | - |
| 1778010583 | 28.33° C | 69% | 1004.6 hPa | 0 mm | 0.45 m/s, 154° | 578 W/m² | - |
| 1778010280 | 28.33° C | 68% | 1004.7 hPa | 0 mm | 1.34 m/s, 164° | 486 W/m² | - |
| 1778009980 | 28.33° C | 67% | 1004.5 hPa | 0 mm | 0.89 m/s, 289° | 421 W/m² | - |
| 1778009678 | 28.89° C | 67% | 1004.9 hPa | 0 mm | 2.68 m/s, 203° | 538 W/m² | - |
| 1778009375 | 28.89° C | 68% | 1004.9 hPa | 0 mm | 0.89 m/s, 218° | 566 W/m² | - |
| 1778009074 | 28.33° C | 68% | 1005.1 hPa | 0 mm | 0.89 m/s, 180° | 669 W/m² | - |
| 1778008771 | 27.78° C | 69% | 1005.1 hPa | 0 mm | 0.45 m/s, 193° | 716 W/m² | - |
| 1778008470 | 28.33° C | 70% | 1005.3 hPa | 0 mm | 2.68 m/s, 244° | 319 W/m² | - |
| 1778008166 | 27.78° C | 70% | 1005.1 hPa | 0 mm | 0.89 m/s, 93° | 309 W/m² | - |
| 1778007861 | 27.22° C | 71% | 1004.9 hPa | 0 mm | 0.89 m/s, 125° | 347 W/m² | - |
| 1778007556 | 26.67° C | 72% | 1005 hPa | 0 mm | 0.89 m/s, 250° | 305 W/m² | - |
| 1778007254 | 26.67° C | 72% | 1004.7 hPa | 0 mm | 1.79 m/s, 201° | 292 W/m² | - |
| 1778006950 | 26.67° C | 71% | 1004.6 hPa | 0 mm | 2.24 m/s, 194° | 288 W/m² | - |
| 1778006647 | 26.67° C | 72% | 1004.6 hPa | 0 mm | 0 m/s | 307 W/m² | - |
| 1778006344 | 26.67° C | 72% | 1004.9 hPa | 0 mm | 1.79 m/s, 209° | 309 W/m² | - |
| 1778006041 | 26.67° C | 71% | 1004.1 hPa | 0 mm | 2.24 m/s, 153° | 320 W/m² | - |
* Rain latest hour (hover to see other rain measurements)
** Current wind speed in m/s (hover to see current wind gust speed)